Location: Unspecified
(0.0000°N, 0.0000°E)
Time: 02:14:08
(UTC+00:00)

Explorer 11/Cluster Stage 4 - Pass Details

Date: 20 April 2026
Orbit: 463 x 1174 km, 28.8° (Epoch: 15 May)

Event Time Altitude Azimuth Distance (km) Brightness Sun altitude
Rises 18:55:52 0° 276° (W) 3,857 12.1 -13.9°
Reaches altitude 10° 18:59:21 10° 263° (W) 2,797 10.6 -14.8°
Maximum altitude 19:04:39 24° 212° (SSW) 1,799 8.6 -16.1°
Drops below altitude 10° 19:09:17 10° 159° (SSE) 2,401 8.7 -17.2°
Enters shadow 19:09:29 - 158° (SSE) 2,455 8.8 -17.3°
